[[{"header":{"parameterUnit":"m.s-1","parameterCategory":1,"la1":30.2991,"la2":30.254,"lo1":-89.0895,"lo2":-89.0444,"dy":0.0017,"dx":0.0017,"nx":28,"ny":28,"refTime":"2023-10-19T21:00:00:Z","depth":0,"parameterNumber":2,"parameterNumberName":"U-component_of_WINDS"},"data":[0,0,0,0,0,0,0,0,0,0,0,0,0,0,0,0,0,0,0,0,0,0,0,0,0,0,0,0,0,0,0,0,0,0,0,0,0,0,0,0,0,0,0,0,0,0,0,0,0,0,0,0,0,0,0,0,0,0,-0.1404,-0.1405,0,-0.1518,-0.1519,-0.152,-0.1605,-0.1606,-0.1607,-0.1607,-0.1726,-0.1728,-0.173,0,0,0,0,0,0,0,0,0,0,0,0,0,-0.126,-0.1262,-0.1404,-0.1405,-0.1406,-0.1517,-0.1519,-0.1521,-0.1605,-0.1606,-0.1607,-0.1608,-0.1725,-0.1728,-0.1731,0,0,0,0,0,0,0,0,0,0,0,0,0,-0.1343,-0.1263,-0.1403,-0.1462,-0.1468,-0.1517,-0.1519,-0.1521,-0.1605,-0.1606,-0.1607,-0.1608,-0.1724,-0.1727,-0.1731,-0.1731,0,0,-0.1742,-0.1744,0,0,0,0,0,0,0,0,-0.1338,-0.1348,-0.1452,-0.1458,-0.1465,-0.1548,-0.1512,-0.1592,-0.1604,-0.1553,-0.1607,-0.1609,-0.1666,-0.1674,-0.1693,-0.1737,-0.1742,-0.1743,-0.1745,-0.1746,-0.1747,0,0,0,0,0,0,0,-0.1332,-0.1344,-0.1449,-0.1453,-0.1461,-0.1483,-0.1496,-0.1527,-0.1602,-0.1558,-0.1564,-0.1576,-0.167,-0.169,-0.1697,-0.1744,-0.1743,-0.1746,-0.1748,-0.175,-0.1792,-0.1791,0,0,0,0,0,0,-0.1317,-0.1338,-0.1445,-0.1452,-0.1403,-0.1484,-0.1499,-0.152,-0.1602,-0.1615,-0.1575,-0.158,-0.1683,-0.1692,-0.1701,-0.1706,-0.1746,-0.175,-0.1752,-0.1793,-0.1791,-0.179,0,0,0,0,0,0,-0.1314,-0.1326,-0.1441,-0.1397,-0.1413,-0.1486,-0.1509,-0.1522,-0.1542,-0.1615,-0.1629,-0.1582,-0.1684,-0.1696,-0.1723,-0.1711,-0.1752,-0.1755,-0.1794,-0.1792,-0.1791,-0.1715,0,0,0,0,0,0,-0.1309,-0.1324,-0.1325,-0.1396,-0.1415,-0.146,-0.1508,-0.1524,-0.1548,-0.1555,-0.1625,-0.1637,-0.1686,-0.1717,-0.1726,-0.1717,-0.1758,-0.1795,-0.1793,-0.1791,-0.1719,-0.1711,-0.1704,0,0,0,0,0,-0.1304,-0.13,-0.1325,-0.1337,-0.1418,-0.1459,-0.147,-0.1525,-0.1547,-0.1548,-0.1595,-0.1635,-0.1711,-0.1719,-0.173,-0.1722,-0.1796,-0.1794,-0.1791,-0.1722,-0.1712,-0.1704,0,0,0,0,0,0,-0.1226,-0.131,-0.1339,-0.1358,-0.14,-0.1473,-0.1477,-0.1513,-0.1551,-0.1556,-0.1624,-0.1639,-0.1658,-0.1693,-0.17,-0.1725,-0.1759,-0.1758,-0.1702,-0.1693,-0.1686,-0.1677,-0.1761,0,0,0,0,0,-0.1211,-0.1237,-0.131,-0.1319,-0.1339,-0.1404,-0.1424,-0.1463,-0.151,-0.1529,-0.1577,-0.1622,-0.1656,-0.1677,-0.1712,-0.1724,-0.174,-0.1724,-0.1717,-0.171,-0.1709,-0.1717,-0.171,-0.1782,-0.1782,-0.1782,0,0,-0.118,-0.123,-0.1242,-0.1305,-0.1342,-0.1368,-0.1419,-0.1444,-0.1463,-0.1533,-0.156,-0.1597,-0.1652,-0.1671,-0.1682,-0.17,-0.1692,-0.1707,-0.1701,-0.1704,-0.1713,-0.1706,-0.17,-0.178,-0.1781,-0.1781,0,0,-0.1137,-0.1177,-0.1189,-0.1225,-0.1281,-0.1324,-0.1327,-0.1394,-0.1421,-0.1449,-0.1501,-0.1526,-0.1583,-0.1619,-0.1645,-0.1613,-0.1651,-0.1623,-0.1584,-0.1591,-0.1585,-0.158,-0.1568,-0.1563,-0.1622,-0.1621,-0.1621,0,-0.1092,-0.1132,-0.1191,-0.1212,-0.1238,-0.1301,-0.1313,-0.1345,-0.141,-0.1426,-0.1446,-0.1518,-0.1559,-0.1586,-0.1578,-0.1598,-0.1602,-0.1615,-0.1581,-0.1577,-0.1574,-0.1562,-0.1558,-0.1618,-0.1618,-0.1618,-0.1619,0,-0.1073,-0.11,-0.1103,-0.1162,-0.1188,-0.1205,-0.1266,-0.1285,-0.1321,-0.1362,-0.1389,-0.1441,-0.1487,-0.1496,-0.1533,-0.1528,-0.1538,-0.1568,-0.1603,-0.1562,-0.1552,-0.1548,-0.1612,-0.1613,-0.1614,-0.1615,0,0,-0.0985,-0.1075,-0.1075,-0.1102,-0.1168,-0.119,-0.1209,-0.1253,-0.1268,-0.131,-0.1327,-0.1373,-0.1401,-0.143,-0.1471,-0.1477,-0.1447,-0.1507,-0.1509,-0.1493,-0.1444,-0.1419,-0.1413,-0.1473,-0.1472,-0.1472,-0.1439,0,-0.0951,-0.0988,-0.1041,-0.106,-0.1085,-0.1145,-0.1161,-0.1203,-0.1241,-0.1268,-0.1311,-0.1341,-0.1377,-0.1395,-0.1403,-0.1448,-0.1438,-0.1452,-0.1489,-0.1489,-0.1472,-0.1409,-0.1383,-0.135,-0.1436,-0.1435,-0.1435,0,-0.0917,-0.0954,-0.0976,-0.1038,-0.105,-0.1064,-0.1108,-0.1133,-0.1181,-0.1209,-0.124,-0.1283,-0.1306,-0.1337,-0.1369,-0.1378,-0.1396,-0.142,-0.142,-0.1425,-0.1459,-0.141,-0.1341,-0.1335,-0.143,-0.143,-0.143,0,-0.0848,-0.0904,-0.0924,-0.0945,-0.1019,-0.1027,-0.1058,-0.1107,-0.113,-0.1168,-0.1183,-0.1224,-0.1246,-0.1277,-0.133,-0.1348,-0.1355,-0.1392,-0.1378,-0.1376,-0.1376,-0.1375,-0.1307,-0.139,-0.139,-0.139,-0.139,0,-0.0804,-0.0815,-0.0894,-0.0906,-0.0919,-0.0979,-0.0991,-0.1027,-0.107,-0.109,-0.1145,-0.1163,-0.1232,-0.1258,-0.13,-0.1319,-0.1329,-0.1351,-0.1362,-0.1346,-0.1342,-0.1358,-0.1361,-0.1389,-0.1389,-0.1389,-0.1389,0,-0.0729,-0.0783,-0.0808,-0.0875,-0.0892,-0.0898,-0.0956,-0.097,-0.101,-0.1035,-0.1044,-0.1108,-0.1141,-0.1197,-0.1247,-0.1275,-0.1285,-0.1305,-0.1268,-0.1275,-0.1257,-0.1257,-0.1195,-0.1189,-0.1277,-0.1276,-0.1275,0,-0.0697,-0.0706,-0.0774,-0.079,-0.0819,-0.0846,-0.0868,-0.0928,-0.0949,-0.1004,-0.1011,-0.1048,-0.108,-0.113,-0.1181,-0.1219,-0.1239,-0.1214,-0.1245,-0.1227,-0.1236,-0.1234,-0.1235,-0.1207,-0.1205,-0.1205,-0.1204,0,-0.0634,-0.0659,-0.069,-0.0729,-0.0754,-0.0788,-0.0825,-0.0836,-0.0903,-0.0925,-0.0958,-0.0983,-0.1033,-0.1068,-0.1113,-0.1145,-0.1185,-0.1194,-0.1192,-0.1175,-0.1153,-0.1163,-0.1248,-0.1195,-0.1196,-0.1196,-0.1197,-0.1197,-0.0579,-0.0589,-0.0637,-0.0669,-0.0702,-0.0735,-0.075,-0.0793,-0.0821,-0.0866,-0.0899,-0.093,-0.0977,-0.1041,-0.1071,-0.1096,-0.1114,-0.1112,-0.1112,-0.111,-0.1102,-0.1149,-0.1104,-0.1105,-0.1105,-0.1105,-0.1105,0,-0.0517,-0.055,-0.0579,-0.0627,-0.0652,-0.0687,-0.0729,-0.0747,-0.0773,-0.0814,-0.0844,-0.0882,-0.0916,-0.0969,-0.1008,-0.1017,-0.1036,-0.1025,-0.1024,-0.103,-0.1085,-0.1081,-0.1009,-0.1009,-0.1009,-0.1009,-0.1009,-0.1009,-0.0487,-0.0505,-0.0536,-0.0572,-0.0606,-0.0635,-0.0656,-0.0686,-0.0719,-0.0758,-0.0786,-0.0821,-0.0866,-0.0908,-0.094,-0.0955,-0.0966,-0.0948,-0.0969,-0.1018,-0.1027,-0.1036,-0.1033,-0.0951,-0.0951,-0.0912,-0.0912,-0.0912]},{"header":{"parameterUnit":"m.s-1","parameterCategory":1,"la1":30.2991,"la2":30.254,"lo1":-89.0895,"lo2":-89.0444,"dy":0.0017,"dx":0.0017,"nx":28,"ny":28,"refTime":"2023-10-19T21:00:00:Z","depth":0,"parameterNumber":3,"parameterNumberName":"V-component_of_WINDS"},"data":[0,0,0,0,0,0,0,0,0,0,0,0,0,0,0,0,0,0,0,0,0,0,0,0,0,0,0,0,0,0,0,0,0,0,0,0,0,0,0,0,0,0,0,0,0,0,0,0,0,0,0,0,0,0,0,0,0,0,-2.7609,-2.761,0,-2.7726,-2.7727,-2.7729,-2.7728,-2.7726,-2.7724,-2.7723,-2.7839,-2.7843,-2.7847,0,0,0,0,0,0,0,0,0,0,0,0,0,-2.7382,-2.7386,-2.7609,-2.761,-2.7612,-2.7726,-2.7727,-2.7729,-2.7728,-2.7726,-2.7724,-2.7722,-2.7837,-2.7842,-2.7848,0,0,0,0,0,0,0,0,0,0,0,0,0,-2.7488,-2.7388,-2.7609,-2.7625,-2.7628,-2.7725,-2.7727,-2.7729,-2.7728,-2.7726,-2.7724,-2.7721,-2.7835,-2.7842,-2.7848,-2.7936,0,0,-2.7869,-2.7872,0,0,0,0,0,0,0,0,-2.7482,-2.7496,-2.7621,-2.7624,-2.7627,-2.771,-2.769,-2.7798,-2.7729,-2.769,-2.7723,-2.772,-2.7797,-2.7807,-2.7834,-2.7941,-2.7946,-2.787,-2.7874,-2.7877,-2.7879,0,0,0,0,0,0,0,-2.7474,-2.7491,-2.7655,-2.7623,-2.7627,-2.7626,-2.7638,-2.771,-2.7755,-2.7693,-2.7693,-2.7707,-2.7798,-2.7827,-2.7837,-2.7948,-2.787,-2.7876,-2.788,-2.7882,-2.8134,-2.8137,0,0,0,0,0,0,-2.7464,-2.7485,-2.7651,-2.7659,-2.7548,-2.7632,-2.7646,-2.7686,-2.7754,-2.7763,-2.7709,-2.7707,-2.7817,-2.7829,-2.7841,-2.7948,-2.7877,-2.7883,-2.7887,-2.8132,-2.8135,-2.8138,0,0,0,0,0,0,-2.7459,-2.7479,-2.7647,-2.7572,-2.7593,-2.7638,-2.7683,-2.7689,-2.7718,-2.7766,-2.7774,-2.7731,-2.7816,-2.7831,-2.7913,-2.7952,-2.7886,-2.7892,-2.8129,-2.8133,-2.8136,-2.8164,0,0,0,0,0,0,-2.7453,-2.7477,-2.7512,-2.7573,-2.7597,-2.7718,-2.7685,-2.7693,-2.773,-2.7728,-2.7789,-2.7796,-2.7815,-2.7903,-2.792,-2.796,-2.7897,-2.8125,-2.813,-2.8135,-2.816,-2.8168,-2.8176,0,0,0,0,0,-2.7445,-2.7514,-2.7513,-2.7534,-2.7641,-2.772,-2.7734,-2.7755,-2.7733,-2.7768,-2.7799,-2.7794,-2.7945,-2.7911,-2.793,-2.7973,-2.8123,-2.8129,-2.8135,-2.8156,-2.8167,-2.8176,0,0,0,0,0,0,-2.7454,-2.7522,-2.7522,-2.7613,-2.7661,-2.772,-2.7764,-2.7766,-2.782,-2.7815,-2.7838,-2.7852,-2.7934,-2.7962,-2.7922,-2.8062,-2.8031,-2.8041,-2.8041,-2.8052,-2.8059,-2.8051,-2.7903,0,0,0,0,0,-2.7467,-2.7527,-2.7582,-2.7657,-2.7681,-2.7719,-2.7754,-2.7766,-2.7816,-2.7836,-2.7873,-2.7921,-2.7979,-2.8017,-2.8073,-2.8164,-2.8177,-2.8203,-2.8211,-2.8218,-2.8226,-2.8277,-2.8289,-2.8157,-2.8157,-2.8157,0,0,-2.7494,-2.7538,-2.7574,-2.766,-2.7699,-2.7759,-2.7736,-2.78,-2.7845,-2.7845,-2.7926,-2.7955,-2.8009,-2.8096,-2.8136,-2.8122,-2.8265,-2.8225,-2.823,-2.8235,-2.8284,-2.8296,-2.8307,-2.8161,-2.8161,-2.816,0,0,-2.7574,-2.7613,-2.7681,-2.772,-2.778,-2.7805,-2.7821,-2.788,-2.79,-2.7981,-2.7983,-2.8036,-2.8135,-2.8175,-2.8208,-2.8304,-2.8302,-2.8322,-2.8363,-2.8413,-2.8423,-2.8432,-2.8467,-2.8479,-2.833,-2.833,-2.833,0,-2.7599,-2.7691,-2.7714,-2.778,-2.7818,-2.7823,-2.7891,-2.7928,-2.8002,-2.8028,-2.8011,-2.8137,-2.8174,-2.8271,-2.8295,-2.8321,-2.834,-2.8315,-2.842,-2.843,-2.8439,-2.8472,-2.8485,-2.8332,-2.8332,-2.8331,-2.8331,0,-2.772,-2.7784,-2.7831,-2.7904,-2.7947,-2.8014,-2.8046,-2.8087,-2.8096,-2.8122,-2.8205,-2.825,-2.8316,-2.834,-2.8348,-2.8438,-2.8428,-2.8415,-2.8384,-2.8453,-2.8485,-2.8497,-2.8335,-2.8334,-2.8333,-2.8333,0,0,-2.7807,-2.7895,-2.7911,-2.7945,-2.8012,-2.8062,-2.8128,-2.8194,-2.8229,-2.828,-2.8336,-2.8422,-2.8411,-2.8449,-2.8462,-2.8505,-2.8579,-2.8488,-2.8489,-2.8503,-2.8681,-2.869,-2.8705,-2.8579,-2.8581,-2.8583,-2.8677,0,-2.7894,-2.8015,-2.8038,-2.8142,-2.8201,-2.8208,-2.8266,-2.8313,-2.8339,-2.8393,-2.8422,-2.8482,-2.8463,-2.8486,-2.853,-2.8561,-2.8615,-2.8555,-2.863,-2.8633,-2.8617,-2.8721,-2.8731,-2.8817,-2.8689,-2.8692,-2.8693,0,-2.8012,-2.8068,-2.8178,-2.8239,-2.8264,-2.8316,-2.8379,-2.8431,-2.8484,-2.85,-2.8543,-2.8552,-2.8621,-2.8588,-2.8683,-2.8641,-2.8673,-2.8694,-2.8698,-2.8705,-2.8667,-2.8732,-2.8845,-2.8858,-2.8713,-2.8711,-2.871,0,-2.8065,-2.8168,-2.8248,-2.8277,-2.8349,-2.8385,-2.8417,-2.8468,-2.8507,-2.8561,-2.8587,-2.8648,-2.8682,-2.8729,-2.8754,-2.8727,-2.8847,-2.8816,-2.8862,-2.8862,-2.8887,-2.8885,-2.9007,-2.8908,-2.8908,-2.8907,-2.8907,0,-2.816,-2.8227,-2.8273,-2.8322,-2.8398,-2.8424,-2.8498,-2.8528,-2.8574,-2.8629,-2.8638,-2.8688,-2.8718,-2.8773,-2.8793,-2.8869,-2.8884,-2.8899,-2.8903,-2.8898,-2.8896,-2.8919,-2.8914,-2.8911,-2.891,-2.8909,-2.8909,0,-2.8232,-2.8265,-2.8353,-2.8415,-2.8432,-2.8485,-2.8537,-2.8585,-2.8612,-2.8681,-2.8699,-2.8741,-2.8806,-2.8836,-2.8916,-2.893,-2.9016,-2.9016,-2.8999,-2.9,-2.9045,-2.9041,-2.9186,-2.9207,-2.9094,-2.9095,-2.9096,0,-2.829,-2.8342,-2.841,-2.8448,-2.8481,-2.8542,-2.8582,-2.861,-2.8651,-2.8717,-2.8757,-2.8823,-2.8877,-2.8981,-2.9018,-2.908,-2.9081,-2.9128,-2.909,-2.9084,-2.9082,-2.9079,-2.9084,-2.9135,-2.9136,-2.9137,-2.9137,0,-2.8389,-2.8404,-2.8462,-2.8527,-2.8575,-2.8627,-2.8678,-2.8708,-2.8744,-2.879,-2.8858,-2.89,-2.8983,-2.9049,-2.9113,-2.9144,-2.9147,-2.9149,-2.9163,-2.9159,-2.9146,-2.9154,-2.9017,-2.9146,-2.9145,-2.9144,-2.9144,-2.9143,-2.8456,-2.8504,-2.856,-2.8625,-2.8666,-2.8714,-2.8762,-2.8796,-2.8854,-2.8925,-2.8938,-2.901,-2.9062,-2.915,-2.9183,-2.924,-2.9228,-2.9249,-2.9254,-2.9258,-2.9261,-2.9138,-2.9251,-2.9251,-2.9251,-2.9251,-2.9251,0,-2.8557,-2.8594,-2.8653,-2.8725,-2.8776,-2.8776,-2.8833,-2.8875,-2.8939,-2.8989,-2.9043,-2.9121,-2.9185,-2.9228,-2.9293,-2.933,-2.9333,-2.9346,-2.9343,-2.935,-2.9267,-2.9249,-2.9343,-2.9342,-2.9342,-2.9342,-2.9342,-2.9342,-2.8615,-2.8695,-2.8717,-2.8818,-2.8854,-2.8926,-2.8958,-2.9002,-2.9042,-2.913,-2.9184,-2.9212,-2.9259,-2.9328,-2.9386,-2.9397,-2.942,-2.9434,-2.9444,-2.9366,-2.9356,-2.9347,-2.933,-2.9439,-2.9439,-2.9523,-2.9524,-2.9524]}]]